Location: Korczew
(51.3586°N, 19.4491°E)
Time: 08:01:41
(UTC+00:00)

Cosmos 2123 Rocket - Pass Details

Date: 19 May 2025
Orbit: 960 x 992 km, 82.9° (Epoch: 16 June)

Event Time Altitude Azimuth Distance (km) Brightness Sun altitude
Exits shadow 23:30:44 28° 184° (S) 1,773 4.8 -17.7°
Maximum altitude 23:34:19 84° 99° (E) 1,004 4.0 -17.6°
Drops below altitude 10° 23:40:42 10° 11° (N) 2,763 7.7 -17.4°
Sets 23:43:13 0° 11° (N) 3,713 8.8 -17.3°
